Change the Weather History Date:

Thursday, May 1, 2014

  Actual Average (KLOZ) Record (KLOZ)
Temperature  
Mean Temperature 53 °F 61 °F  
Max Temperature 60 °F 73 °F 88 °F (2007)
Min Temperature 46 °F 49 °F 31 °F (1963)
Degree Days  
Heating Degree Days 12 5  
Month to date heating degree days 5  
Since 1 July heating degree days 4106  
Cooling Degree Days 0 1  
Month to date cooling degree days 1  
Year to date cooling degree days 27  
Growing Degree Days 3 (Base 50)    
Moisture  
Dew Point 39 °F    
Average Humidity 60    
Maximum Humidity 87    
Minimum Humidity 36    
Precipitation  
Precipitation 0.00 in 0.15 in 1.76 in (2010)
Month to date precipitation 0.15  
Year to date precipitation 15.50  
Sea Level Pressure  
Sea Level Pressure 29.94 in    
Wind  
Wind Speed 8 mph (WSW)    
Max Wind Speed 18 mph    
Max Gust Speed 24 mph    
Visibility 10 miles    
Events      
T = Trace of Precipitation, MM = Missing Value Source: NWS Daily Summary

Daily Weather History Graph

Daily Weather History Graph

Search for Another Location

Airport or City:

Trip Planner

Search our weather history database for the weather conditions in past years. The results will help you decide how hot, cold, wet, or windy it might be!

Date:

Astronomy

May. 01, 2014 Rise Set
Actual Time 6:41 AM EDT 8:27 PM EDT
Civil Twilight 6:13 AM EDT 8:55 PM EDT
Nautical Twilight 5:39 AM EDT 9:29 PM EDT
Astronomical Twilight 5:03 AM EDT 10:06 PM EDT
Moon 8:29 AM EDT 10:58 PM EDT
Length of Visible Light 14h 42m
Length of Day
13h 45m
Waxing Crescent, 6% of the Moon is Illuminated
May 1
Waxing Crescent
May 6
First Quarter
May 14
Full
May 21
Last Quarter
May 28
New

Hourly Weather History & Observations

Time (EDT) Temp. Windchill Dew Point Humidity Pressure Visibility Wind Dir Wind Speed Gust Speed Precip Events Conditions
12:15 AM 53.6 °F - 44.6 °F 72% 29.93 in 10.0 mi West 6.9 mph - N/A   Overcast
12:35 AM 53.6 °F - 44.6 °F 72% 29.93 in 10.0 mi West 5.8 mph - N/A   Overcast
12:55 AM 53.6 °F - 44.6 °F 72% 29.93 in 10.0 mi West 6.9 mph - N/A   Overcast
1:15 AM 51.8 °F - 44.6 °F 76% 29.93 in 10.0 mi West 4.6 mph - N/A   Overcast
1:35 AM 51.8 °F - 44.6 °F 76% 29.94 in 10.0 mi West 8.1 mph - N/A   Overcast
2:15 AM 51.8 °F - 44.6 °F 76% 29.94 in 10.0 mi West 5.8 mph - N/A   Overcast
2:35 AM 50.0 °F - 44.6 °F 82% 29.93 in 10.0 mi West 5.8 mph - N/A   Overcast
2:55 AM 50.0 °F - 42.8 °F 76% 29.92 in 10.0 mi WSW 5.8 mph - N/A   Scattered Clouds
3:15 AM 50.0 °F - 42.8 °F 76% 29.92 in 10.0 mi WSW 4.6 mph - N/A   Mostly Cloudy
3:35 AM 48.2 °F - 42.8 °F 82% 29.92 in 10.0 mi WSW 4.6 mph - N/A   Overcast
3:55 AM 50.0 °F - 44.6 °F 82% 29.92 in 10.0 mi West 5.8 mph - N/A   Overcast
4:15 AM 50.0 °F - 44.6 °F 82% 29.92 in 10.0 mi West 6.9 mph - N/A   Overcast
4:35 AM 50.0 °F - 42.8 °F 76% 29.92 in 10.0 mi WNW 10.4 mph 19.6 mph N/A   Overcast
5:15 AM 48.2 °F - 42.8 °F 82% 29.93 in 7.0 mi WNW 10.4 mph - N/A   Overcast
5:35 AM 46.4 °F 45.2 °F 42.8 °F 87% 29.93 in 7.0 mi West 3.5 mph - N/A   Overcast
6:15 AM 46.4 °F 43.5 °F 42.8 °F 87% 29.93 in 10.0 mi WSW 5.8 mph - N/A   Overcast
6:35 AM 46.4 °F 44.3 °F 42.8 °F 87% 29.94 in 10.0 mi SW 4.6 mph - N/A   Overcast
6:55 AM 46.4 °F 44.3 °F 42.8 °F 87% 29.95 in 10.0 mi WSW 4.6 mph - N/A   Overcast
7:15 AM 46.4 °F 43.5 °F 42.8 °F 87% 29.95 in 10.0 mi WSW 5.8 mph - N/A   Overcast
7:35 AM 46.4 °F 44.3 °F 42.8 °F 87% 29.96 in 10.0 mi WSW 4.6 mph - N/A   Overcast
7:55 AM 48.2 °F - 41.0 °F 76% 29.96 in 10.0 mi WSW 6.9 mph - N/A   Overcast
8:15 AM 48.2 °F - 41.0 °F 76% 29.97 in 10.0 mi SW 9.2 mph - N/A   Overcast
8:35 AM 48.2 °F - 41.0 °F 76% 29.96 in 10.0 mi WSW 6.9 mph - N/A   Mostly Cloudy
8:55 AM 48.2 °F - 42.8 °F 82% 29.97 in 10.0 mi WSW 11.5 mph - N/A   Scattered Clouds
9:15 AM 50.0 °F - 42.8 °F 76% 29.98 in 10.0 mi SW 11.5 mph 16.1 mph N/A   Mostly Cloudy
9:35 AM 51.8 °F - 42.8 °F 71% 29.97 in 10.0 mi SW 11.5 mph - N/A   Overcast
9:55 AM 51.8 °F - 42.8 °F 71% 29.97 in 10.0 mi WSW 10.4 mph - N/A   Mostly Cloudy
10:15 AM 51.8 °F - 42.8 °F 71% 29.97 in 10.0 mi SW 10.4 mph - N/A   Mostly Cloudy
10:55 AM 53.6 °F - 42.8 °F 67% 29.97 in 10.0 mi WSW 10.4 mph - N/A   Mostly Cloudy
11:15 AM 55.4 °F - 39.2 °F 54% 29.97 in 10.0 mi SW 11.5 mph 17.3 mph N/A   Mostly Cloudy
11:35 AM 55.4 °F - 37.4 °F 51% 29.97 in 10.0 mi SW 11.5 mph 19.6 mph N/A   Overcast
11:55 AM 55.4 °F - 37.4 °F 51% 29.97 in 10.0 mi WSW 12.7 mph 16.1 mph N/A   Overcast
12:15 PM 55.4 °F - 37.4 °F 51% 29.96 in 10.0 mi West 12.7 mph 20.7 mph N/A   Overcast
12:35 PM 57.2 °F - 37.4 °F 48% 29.96 in 10.0 mi WSW 11.5 mph 20.7 mph N/A   Overcast
1:15 PM 55.4 °F - 37.4 °F 51% 29.95 in 10.0 mi West 16.1 mph 24.2 mph N/A   Mostly Cloudy
1:35 PM 57.2 °F - 37.4 °F 48% 29.94 in 10.0 mi WSW 10.4 mph 20.7 mph N/A   Mostly Cloudy
1:55 PM 57.2 °F - 37.4 °F 48% 29.94 in 10.0 mi WSW 18.4 mph - N/A   Scattered Clouds
2:15 PM 60.8 °F - 37.4 °F 42% 29.94 in 10.0 mi WSW 13.8 mph 21.9 mph N/A   Mostly Cloudy
2:35 PM 57.2 °F - 33.8 °F 41% 29.94 in 10.0 mi WSW 13.8 mph 19.6 mph N/A   Mostly Cloudy
2:55 PM 60.8 °F - 33.8 °F 36% 29.94 in 10.0 mi West 15.0 mph 21.9 mph N/A   Mostly Cloudy
3:15 PM 59.0 °F - 33.8 °F 39% 29.93 in 10.0 mi WSW 13.8 mph 23.0 mph N/A   Mostly Cloudy
3:35 PM 60.8 °F - 33.8 °F 36% 29.93 in 10.0 mi West 18.4 mph 24.2 mph N/A   Scattered Clouds
4:15 PM 59.0 °F - 33.8 °F 39% 29.93 in 10.0 mi West 15.0 mph 24.2 mph N/A   Mostly Cloudy
4:35 PM 60.8 °F - 35.6 °F 39% 29.92 in 10.0 mi West 15.0 mph 20.7 mph N/A   Mostly Cloudy
4:55 PM 59.0 °F - 32.0 °F 36% 29.92 in 10.0 mi West 17.3 mph 23.0 mph N/A   Overcast
5:15 PM 59.0 °F - 33.8 °F 39% 29.93 in 10.0 mi West 13.8 mph 23.0 mph N/A   Overcast
5:55 PM 57.2 °F - 32.0 °F 38% 29.93 in 10.0 mi West 13.8 mph 17.3 mph N/A   Overcast
6:15 PM 57.2 °F - 33.8 °F 41% 29.93 in 10.0 mi WSW 11.5 mph 17.3 mph N/A   Overcast
6:35 PM 57.2 °F - 33.8 °F 41% 29.93 in 10.0 mi WSW 10.4 mph - N/A   Overcast
6:55 PM 57.2 °F - 33.8 °F 41% 29.93 in 10.0 mi West 12.7 mph 19.6 mph N/A   Overcast
7:15 PM 57.2 °F - 33.8 °F 41% 29.93 in 10.0 mi West 10.4 mph - N/A   Overcast
7:35 PM 57.2 °F - 33.8 °F 41% 29.93 in 10.0 mi WSW 9.2 mph - N/A   Overcast
7:55 PM 55.4 °F - 33.8 °F 44% 29.93 in 10.0 mi WSW 8.1 mph - N/A   Overcast
8:15 PM 55.4 °F - 33.8 °F 44% 29.94 in 10.0 mi WSW 5.8 mph - N/A   Overcast
8:35 PM 55.4 °F - 35.6 °F 47% 29.93 in 10.0 mi WSW 4.6 mph - N/A   Overcast
8:55 PM 55.4 °F - 35.6 °F 47% 29.94 in 10.0 mi SW 4.6 mph - N/A   Overcast
9:15 PM 53.6 °F - 35.6 °F 51% 29.93 in 10.0 mi SW 3.5 mph - N/A   Overcast
9:35 PM 53.6 °F - 37.4 °F 54% 29.94 in 10.0 mi SW 4.6 mph - N/A   Overcast
9:55 PM 53.6 °F - 37.4 °F 54% 29.94 in 10.0 mi SSW 4.6 mph - N/A   Overcast
10:15 PM 53.6 °F - 35.6 °F 51% 29.94 in 10.0 mi SW 5.8 mph - N/A   Overcast
10:35 PM 53.6 °F - 35.6 °F 51% 29.95 in 10.0 mi SW 5.8 mph - N/A   Overcast
10:55 PM 53.6 °F - 35.6 °F 51% 29.95 in 10.0 mi SW 5.8 mph - N/A   Overcast
11:15 PM 51.8 °F - 35.6 °F 54% 29.95 in 10.0 mi WSW 5.8 mph - N/A   Overcast
11:35 PM 51.8 °F - 35.6 °F 54% 29.95 in 10.0 mi SW 6.9 mph - N/A   Overcast
11:55 PM 51.8 °F - 35.6 °F 54% 29.95 in 10.0 mi SW 6.9 mph - N/A   Mostly Cloudy